Weather reports worldwide

Advertisment
Yeovilton, United Kingdom (3853): temperature & dewpoint: 13.11.2019 17:00:00 - 19.11.2019 17:00:00 (GMT)Yeovilton, United Kingdom (3853): temperature -20cm & temperature -100cm: 13.11.2019 17:00:00 - 19.11.2019 17:00:00 (GMT)Yeovilton, United Kingdom (3853): wind speed & gusts: 13.11.2019 17:00:00 - 19.11.2019 17:00:00 (GMT)Yeovilton, United Kingdom (3853): wind direction: 13.11.2019 17:00:00 - 19.11.2019 17:00:00 (GMT)Yeovilton, United Kingdom (3853): reduced air pressure: 13.11.2019 17:00:00 - 19.11.2019 17:00:00 (GMT)Yeovilton, United Kingdom (3853): visibility: 13.11.2019 17:00:00 - 19.11.2019 17:00:00 (GMT)Yeovilton, United Kingdom (3853): sunshine duration: 13.11.2019 17:00:00 - 19.11.2019 17:00:00 (GMT)Yeovilton, United Kingdom (3853): precipitation: 13.11.2019 17:00:00 - 19.11.2019 17:00:00 (GMT)
Date & Time tt [°C] td [°C] tt -20cm [°C] tt -100cm [°C] ff [km/h] ff [kn] fx [km/h] fx [kn] dd ppp [hPa] vv [km] sd [min] rr [mm]
19.11.2019 17:00:00 9,1 7,0 - - 16 9 - - SE 1013,3 10 0 0,0
19.11.2019 16:00:00 9,3 7,0 - - 15 8 - - SE 1013,3 10 0 0,0
19.11.2019 15:00:00 9,4 6,5 - - 16 9 - - SE 1013,4 10 0 0,0
19.11.2019 14:00:00 9,9 6,6 - - 16 9 - - SSE 1013,9 10 0 0,0
19.11.2019 13:00:00 9,5 6,4 - - 16 9 - - SE 1014,3 20 30 0,0
19.11.2019 12:00:00 7,9 5,6 - - 9 5 - - SE 1014,9 10 0 0,0
19.11.2019 11:00:00 6,5 4,7 - - 16 9 - - SE 1015,2 10 0 0,0
19.11.2019 10:00:00 4,7 4,3 - - 5 3 - - ESE 1015,9 10 0 0,0
19.11.2019 09:00:00 2,0 1,7 7,7 9,7 9 5 - - ESE 1015,9 10 0 0,0
19.11.2019 08:00:00 0,0 -0,4 - - 8 4 - - ESE 1016,0 10 0 0,0
19.11.2019 07:00:00 -0,9 -1,4 - - 8 4 - - E 1015,9 10 0 0,0
19.11.2019 06:00:00 -1,0 -1,5 - - 5 3 - - E 1015,9 10 0 0,0
19.11.2019 05:00:00 -1,1 -1,5 - - 5 3 - - ENE 1016,2 7 0 0,0
19.11.2019 04:00:00 -0,8 -1,2 - - 4 2 - - E 1016,6 7 0 0,0
19.11.2019 03:00:00 -1,3 -1,7 - - 2 1 - - ENE 1017,2 10 0 0,0
19.11.2019 02:00:00 -0,8 -1,1 - - 4 2 - - E 1017,6 7 0 0,0
19.11.2019 01:00:00 -1,7 -2,1 - - 2 1 - - ESE 1017,7 8 0 0,0
19.11.2019 00:00:00 -1,5 -1,9 - - 4 2 - - E 1018,1 12 - 0,0
18.11.2019 23:00:00 -0,8 -1,2 - - 4 2 - - SE 1018,2 2,4 0 0,0
18.11.2019 22:00:00 -0,4 -0,9 - - 4 2 - - NE 1018,2 11 0 0,0
18.11.2019 21:00:00 -0,2 -0,8 - - 5 3 - - ESE 1018,4 9 0 0,0
18.11.2019 20:00:00 -0,5 -1,3 - - 2 1 - - S 1018,8 10 0 0,0
18.11.2019 19:00:00 0,6 -0,4 - - 5 3 - - ESE 1018,6 18 0 0,0
18.11.2019 18:00:00 2,5 1,0 - - 4 2 - - SSW 1018,1 24 0 0,0
18.11.2019 17:00:00 4,3 1,6 - - 4 2 - - WNW 1017,9 19 0 0,0
18.11.2019 16:00:00 7,4 2,2 - - 8 4 - - NNW 1017,9 10 54 0,0
18.11.2019 15:00:00 8,1 2,5 - - 9 5 - - NNW 1017,7 35 60 0,0
18.11.2019 14:00:00 8,4 3,0 - - 15 8 - - NNW 1017,5 10 60 0,0
18.11.2019 13:00:00 8,0 3,5 - - 16 9 - - NNW 1017,8 10 48 0,0
18.11.2019 12:00:00 7,9 4,2 - - 18 10 - - NNW 1017,7 50 42 0,0
18.11.2019 11:00:00 7,5 4,6 - - 9 5 - - N 1018,2 21 54 0,0
18.11.2019 10:00:00 6,5 4,8 - - 4 2 - - S 1018,4 10 60 0,0
18.11.2019 09:00:00 3,9 3,1 8,2 9,9 5 3 - - SW 1018,5 6 24 0,0
18.11.2019 08:00:00 3,2 2,3 - - 8 4 - - W 1018,5 8 0 0,0
18.11.2019 07:00:00 3,6 2,9 - - 11 6 - - W 1017,9 12 0 0,0
18.11.2019 06:00:00 4,7 3,0 - - 11 6 - - NNW 1017,4 25 0 0,0
18.11.2019 05:00:00 4,4 3,0 - - 11 6 - - N 1017,0 17 0 0,0
18.11.2019 04:00:00 5,4 3,7 - - 11 6 - - NNW 1016,4 25 0 0,0
18.11.2019 03:00:00 6,1 4,2 - - 11 6 - - N 1016,3 10 0 0,0
18.11.2019 02:00:00 7,2 5,3 - - 16 9 - - N 1015,9 22 0 0,0
18.11.2019 01:00:00 7,1 5,8 - - 15 8 - - NNW 1015,6 17 0 0,0
18.11.2019 00:00:00 7,8 5,9 - - 18 10 - - NNE 1015,1 45 - 0,0
17.11.2019 23:00:00 7,5 6,8 - - 11 6 - - NNW 1014,9 4,2 0 0,2
17.11.2019 22:00:00 7,5 6,4 - - 9 5 - - N 1014,6 16 0 0,0
17.11.2019 21:00:00 7,7 6,7 - - 11 6 - - NNW 1014,3 11 0 0,0
17.11.2019 20:00:00 7,6 6,6 - - 8 4 - - NNW 1013,8 11 0 0,0
17.11.2019 19:00:00 7,5 6,5 - - 15 8 - - NNW 1013,5 9 0 0,0
17.11.2019 18:00:00 7,5 6,1 - - 9 5 - - NNW 1013,6 9 0 0,2
17.11.2019 17:00:00 7,5 6,1 - - 8 4 - - N 1013,0 9 0 0,0
17.11.2019 16:00:00 8,1 5,9 - - 11 6 - - N 1012,7 10 0 0,0
17.11.2019 15:00:00 8,6 6,1 - - 9 5 - - N 1012,3 10 0 0,0
17.11.2019 14:00:00 8,5 5,9 - - 4 2 - - NW 1011,9 18 0 0,0
17.11.2019 13:00:00 7,6 5,0 - - 5 3 - - NW 1011,7 13 0 0,0
17.11.2019 12:00:00 6,2 4,4 - - 5 3 - - W 1011,6 14 0 0,0
17.11.2019 11:00:00 6,0 3,7 - - 0 0 - - N 1011,6 10 6 0,0
17.11.2019 10:00:00 3,4 2,6 - - 0 0 - - N 1011,6 8 0 0,0
17.11.2019 09:00:00 2,5 2,2 8,2 10,0 2 1 - - NW 1011,0 8 0 0,0
17.11.2019 08:00:00 1,6 1,3 - - 8 4 - - ESE 1010,5 5 0 0,0
17.11.2019 07:00:00 0,8 0,4 - - 4 2 - - ENE 1010,3 5 0 0,0
17.11.2019 06:00:00 1,6 1,3 - - 0 0 - - N 1009,7 6 0 0,0
17.11.2019 05:00:00 1,4 1,1 - - 4 2 - - SE 1009,3 5 0 0,0
17.11.2019 04:00:00 1,0 0,7 - - 5 3 - - ENE 1009,3 5 0 0,0
17.11.2019 03:00:00 0,3 -0,2 - - 0 0 - - N 1009,0 5 0 0,0
17.11.2019 02:00:00 0,3 -0,2 - - 5 3 - - SSE 1009,2 2,6 0 0,0
17.11.2019 01:00:00 1,0 0,4 - - 4 2 - - ESE 1009,3 5 0 0,0
17.11.2019 00:00:00 1,6 1,0 - - 4 2 - - E 1009,3 6 - 0,0
16.11.2019 23:00:00 2,5 1,8 - - 5 3 - - SE 1009,2 5 0 0,0
16.11.2019 22:00:00 3,1 2,5 - - 4 2 - - WSW 1009,0 5 0 0,0
16.11.2019 21:00:00 2,6 2,1 - - 5 3 - - S 1008,8 4,6 0 0,0
16.11.2019 20:00:00 1,8 0,8 - - 2 1 - - E 1008,9 6 0 0,0
16.11.2019 19:00:00 3,3 1,9 - - 2 1 - - SW 1008,6 11 0 0,0
16.11.2019 18:00:00 4,9 3,2 - - 2 1 - - SSW 1008,2 11 0 0,0
16.11.2019 17:00:00 5,2 2,1 - - 5 3 - - ENE 1007,9 14 0 0,0
16.11.2019 16:00:00 7,5 3,4 - - 8 4 - - NNW 1007,7 10 0 0,0
16.11.2019 15:00:00 8,2 3,6 - - 15 8 - - NNW 1007,3 10 30 0,0
16.11.2019 14:00:00 8,3 2,0 - - 11 6 - - N 1007,2 10 24 0,0
16.11.2019 13:00:00 8,5 2,8 - - 13 7 - - N 1007,1 16 18 0,0
16.11.2019 12:00:00 8,4 3,7 - - 15 8 - - NNE 1006,9 10 60 0,0
16.11.2019 11:00:00 7,8 4,1 - - 13 7 - - ENE 1007,1 22 48 0,0
16.11.2019 10:00:00 7,1 4,7 - - 9 5 - - NNE 1006,8 10 0 0,0
16.11.2019 09:00:00 6,4 4,6 8,2 10,0 11 6 - - NNE 1006,7 12 0 0,0
16.11.2019 08:00:00 6,1 4,4 - - 11 6 - - N 1006,3 12 0 0,0
16.11.2019 07:00:00 6,2 4,3 - - 15 8 - - N 1005,6 10 0 0,0
16.11.2019 06:00:00 6,4 4,4 - - 13 7 - - N 1005,1 10 0 0,0
16.11.2019 05:00:00 6,4 4,5 - - 16 9 - - N 1004,3 19 0 0,0
16.11.2019 04:00:00 6,6 4,4 - - 15 8 - - N 1004,2 35 0 0,0
16.11.2019 03:00:00 6,8 4,1 - - 16 9 - - N 1003,9 50 0 0,0
16.11.2019 02:00:00 6,8 4,5 - - 22 12 - - N 1003,8 10 0 0,8
16.11.2019 01:00:00 7,0 4,6 - - 24 13 - - NNW 1003,3 23 0 0,0
16.11.2019 00:00:00 7,1 4,1 - - 22 12 - - N 1003,3 10 - 0,0
15.11.2019 23:00:00 6,9 4,3 - - 26 14 - - NNW 1003,6 13 0 0,2
15.11.2019 22:00:00 6,9 4,3 - - 24 13 - - NNW 1004,2 17 0 0,2
15.11.2019 21:00:00 7,5 3,8 - - 26 14 - - NNW 1004,4 40 0 0,0
15.11.2019 20:00:00 7,7 4,2 - - 26 14 - - N 1004,7 40 0 0,0
15.11.2019 19:00:00 8,0 3,8 - - 29 16 48 26 NNW 1004,8 40 0 0,0
15.11.2019 18:00:00 7,7 4,7 - - 24 13 - - N 1005,3 10 0 0,0
15.11.2019 17:00:00 7,4 5,3 - - 24 13 - - N 1005,2 10 0 0,0
15.11.2019 16:00:00 7,7 4,9 - - 22 12 - - NNW 1005,1 10 0 0,0
15.11.2019 15:00:00 7,8 5,2 - - 21 11 - - NNW 1005,1 10 0 0,0
15.11.2019 14:00:00 7,5 5,4 - - 18 10 - - NNW 1005,3 10 0 0,2
15.11.2019 13:00:00 7,1 5,3 - - 22 12 - - NNW 1005,8 10 0 0,0
15.11.2019 12:00:00 7,0 4,5 - - 22 12 - - N 1006,3 10 0 0,0
15.11.2019 11:00:00 6,8 3,9 - - 21 11 - - N 1006,8 10 0 0,0
15.11.2019 10:00:00 6,4 3,8 - - 21 11 - - N 1006,9 10 0 0,0
15.11.2019 09:00:00 5,7 3,5 8,2 10,2 22 12 - - N 1006,5 10 0 0,0
15.11.2019 08:00:00 5,3 3,5 - - 16 9 - - N 1006,4 10 0 0,0
15.11.2019 07:00:00 4,8 3,4 - - 11 6 - - NNW 1006,3 10 0 0,0
15.11.2019 06:00:00 4,6 3,1 - - 15 8 - - N 1005,7 10 0 0,0
15.11.2019 05:00:00 4,7 3,4 - - 16 9 - - N 1005,7 10 0 0,0
15.11.2019 04:00:00 4,4 3,0 - - 18 10 - - N 1005,2 10 0 0,0
15.11.2019 03:00:00 4,6 3,3 - - 22 12 - - N 1005,1 10 0 0,0
15.11.2019 02:00:00 5,1 3,3 - - 18 10 - - N 1005,2 10 0 0,0
15.11.2019 01:00:00 5,3 3,4 - - 18 10 - - N 1004,7 10 0 0,0
15.11.2019 00:00:00 4,9 3,4 - - 15 8 - - N 1004,4 10 - 0,0
14.11.2019 23:00:00 5,0 3,6 - - 21 11 - - N 1003,9 10 0 0,0
14.11.2019 22:00:00 4,4 3,3 - - 16 9 - - NNE 1003,4 10 0 0,0
14.11.2019 21:00:00 4,3 3,0 - - 18 10 - - N 1002,8 10 0 0,0
14.11.2019 20:00:00 3,8 2,6 - - 18 10 - - N 1002,0 10 0 0,0
14.11.2019 19:00:00 4,5 3,0 - - 18 10 - - N 1001,3 10 0 0,0
14.11.2019 18:00:00 5,0 2,9 - - 13 7 - - N 1000,4 10 0 0,0
14.11.2019 17:00:00 4,7 3,5 - - 9 5 - - N 999,2 12 0 0,0
14.11.2019 16:00:00 4,9 2,9 - - 5 3 - - N 997,8 10 0 0,0
14.11.2019 15:00:00 4,9 2,5 - - 5 3 - - NNE 996,9 10 0 0,0
14.11.2019 14:00:00 4,6 2,2 - - 2 1 - - WSW 996,0 10 0 0,0
14.11.2019 13:00:00 4,4 2,5 - - 4 2 - - ESE 995,3 10 0 0,0
14.11.2019 12:00:00 4,3 2,8 - - 5 3 - - E 994,7 10 0 0,0
14.11.2019 11:00:00 3,1 2,5 - - 8 4 - - ENE 994,4 6 0 0,2
14.11.2019 10:00:00 2,0 1,9 - - 9 5 - - WNW 993,5 5 0 0,0
14.11.2019 09:00:00 1,2 1,2 8,5 10,5 2 1 - - SE 993,3 4,0 0 0,0
14.11.2019 08:00:00 0,4 0,3 - - 9 5 - - W 992,6 3,0 0 0,0
14.11.2019 07:00:00 -0,3 -0,4 - - 2 1 - - W 992,0 0,9 0 0,0
14.11.2019 06:00:00 -1,4 -1,6 - - 4 2 - - W 991,1 0,1 0 0,0
14.11.2019 05:00:00 -1,1 -1,2 - - 0 0 - - N 990,4 0,9 0 0,0
14.11.2019 04:00:00 -1,4 -1,8 - - 4 2 - - SSW 989,8 0,2 0 0,0
14.11.2019 03:00:00 -0,3 -0,6 - - 4 2 - - SE 989,3 10 0 0,0
14.11.2019 02:00:00 0,3 0,0 - - 5 3 - - ENE 989,1 10 0 0,0
14.11.2019 01:00:00 0,9 0,5 - - 5 3 - - ESE 989,0 10 0 0,0
14.11.2019 00:00:00 1,0 0,5 - - 5 3 - - E 988,7 10 - 0,0
13.11.2019 23:00:00 2,1 1,2 - - 2 1 - - W 988,6 10 0 0,0
13.11.2019 22:00:00 2,7 1,5 - - 9 5 - - SSW 989,0 10 0 0,0
13.11.2019 21:00:00 4,1 2,9 - - 9 5 - - S 989,0 10 0 0,0
13.11.2019 20:00:00 4,4 2,9 - - 9 5 - - WSW 988,7 10 0 0,4
13.11.2019 19:00:00 5,6 4,6 - - 21 11 - - S 988,9 4,0 0 5,0
13.11.2019 18:00:00 7,3 5,6 - - 22 12 - - SSE 989,5 5 0 1,8
13.11.2019 17:00:00 7,2 5,6 - - 15 8 - - SE 991,3 4,0 0 1,6

tt = temperature
td = dewpoint
tt -20cm = temperature -20cm
tt -100cm = temperature -100cm
ff = wind speed
fx = gusts
dd = wind direction
ppp = reduced air pressure
vv = visibility
sd = sunshine duration
rr = precipitation

Next stations